Meteo Giornale » Osservazioni meteo Gran Bretagna » Tees-Side

ore: 15:50 - Osservazioni Meteo Tees-Side
Lat. 54° 31' N Lon. 1° 25' W Alt. 37 metri s.l.m.

molto_nuvoloso Europe/London

21 °C

Molto Nuvoloso

Temp. 24 Ore

15 °C

22 °C

Sud-Ovest

29.6 Km/h

Dew point 15 °C

Umidità 68 %

Visibilità  10 Km

Il sole sorge alle ore 06:53

Il sole tramonta alle ore 19:01

Data e Ora Cielo e Fenomeni T °C DP °C Um. % Pres. hPa Vis. km Vento km/h
Oggi h: 15:50 molto_nuvoloso Molto Nuvoloso 21 15 68 1009 10 SO 29.6
Oggi h: 15:20 molto_nuvoloso Molto Nuvoloso 21 15 68 1009 10 O/SO 27.8
Oggi h: 14:50 molto_nuvoloso Molto Nuvoloso 21 15 68 1009 10 O 29.6
Oggi h: 13:50 molto_nuvoloso Molto Nuvoloso 21 15 68 1009 10 O/SO 31.5
Oggi h: 13:20 molto_nuvoloso Molto Nuvoloso 21 15 68 1009 10 O/SO 27.8
Oggi h: 12:50 molto_nuvoloso Molto Nuvoloso 21 14 64 1009 10 O/SO 31.5
Oggi h: 12:20 nuvoloso Nuvoloso 22 15 64 1009 10 O/SO 27.8
Oggi h: 11:50 nuvoloso Nuvoloso 20 14 68 1009 10 O/SO 29.6
Oggi h: 11:20 nuvoloso Nuvoloso 20 14 68 1009 10 SO 27.8
Oggi h: 10:50 nuvoloso Nuvoloso 19 14 72 1010 10 SO 24
Oggi h: 10:20 nuvoloso Nuvoloso 18 13 72 1010 10 SO 20.3
Oggi h: 09:50 nuvoloso Nuvoloso 18 13 72 1010 10 S/SO 22.2
Oggi h: 09:20 nuvoloso Nuvoloso 17 13 77 1010 10 S/SO 16.7
Oggi h: 08:20 nuvoloso Nuvoloso 15 11 76 1010 10 S 14.8
Oggi h: 07:50 nuvoloso Nuvoloso 15 10 72 1010 10 S/SO 27.8
Oggi h: 07:20 poco_nuvoloso Poco Nuvoloso 15 9 67 1010 10 SO 25.9
Oggi h: 06:20 poco_nuvoloso Poco Nuvoloso 15 10 72 1011 10 SO 33.3
Ieri h: 21:20 nuvoloso Nuvoloso 15 11 76 1016 10 SO 14.8
Ieri h: 20:50 nuvoloso Nuvoloso 15 11 76 1016 10 O/SO 16.7
Ieri h: 19:50 molto_nuvoloso Molto Nuvoloso 15 11 76 1016 10 S/SO 13
Ieri h: 19:20 molto_nuvoloso Molto Nuvoloso 15 11 76 1016 10 S/SO 13
Ieri h: 18:50 molto_nuvoloso Molto Nuvoloso 16 11 72 1016 10 O 11.1
Ieri h: 18:20 molto_nuvoloso Molto Nuvoloso 16 11 72 1016 10 O 20.3
Ieri h: 17:50 molto_nuvoloso Molto Nuvoloso 16 11 72 1016 10 O 18.5
Ieri h: 17:20 molto_nuvoloso Molto Nuvoloso 16 11 72 1016 10 O 22.2
Ieri h: 16:50 molto_nuvoloso Molto Nuvoloso 17 11 67 1016 10 O 14.8